SV2BZQ-2 Thessalonik GR current weather conditions

sailwx.info

Wind from 226 at 2 knots gusting 4

Air temperature 22.8° C
Dewpoint 17.7° C

Last reported at 2014-Sep-18 14:52 UTC.
Time now 2014-Sep-18 15:48 UTC

Location: N 40°41' E 022°51'.
View on Google Maps.

See reports from other nearby stations

  
Tides and Currents Weather Stations Pressure Air Temp Water Temp Dewpoint Dewpoint Depression Visibility Wind Speed Wind Dir Waves Ship Positions
date/time (UTC)wind fromknots sea level pressurealtimeterstation pressurevisibilityair tempwater tempwave heightnotes
2014-Sep-18 14:52 226 2 gusting 4 22.8
2014-Sep-18 14:47 214 22.8
2014-Sep-18 14:42 241 22.8
2014-Sep-18 14:37 238 22.8
2014-Sep-18 14:32 236 0 gusting 1 22.8
2014-Sep-18 14:27 221 0 gusting 2 22.8
2014-Sep-18 14:22 221 0 gusting 5 22.2
2014-Sep-18 14:17 217 22.2
2014-Sep-18 14:12 216 0 gusting 5 22.2
2014-Sep-18 14:07 218 3 gusting 4 22.2
2014-Sep-18 14:02 217 1 gusting 2 22.2
2014-Sep-18 13:57 220 2 gusting 2 22.2
2014-Sep-18 13:52 253 0 gusting 0 22.2
2014-Sep-18 13:47 227 0 gusting 3 22.2
2014-Sep-18 13:42 207 1 gusting 2 22.2
2014-Sep-18 13:37 229 22.2
2014-Sep-18 13:36 229 22.2
2014-Sep-18 13:27 216 1 gusting 6 22.2
2014-Sep-18 13:22 224 0 gusting 3 22.2
2014-Sep-18 13:20 205 0 gusting 6 22.2
2014-Sep-18 13:12 217 0 gusting 3 22.2
2014-Sep-18 13:07 254 1 gusting 2 22.2
2014-Sep-18 13:05 253 1 gusting 5 21.7
2014-Sep-18 12:57 245 0 gusting 3 22.2
2014-Sep-18 12:52 264 1 gusting 0 22.2
2014-Sep-18 12:50 264 4 gusting 8 21.7
2014-Sep-18 12:42 267 1 gusting 1 21.7
2014-Sep-18 12:37 263 3 gusting 6 21.7
2014-Sep-18 12:35 265 2 gusting 6 21.7
2014-Sep-18 12:27 273 1 gusting 5 21.7
2014-Sep-18 12:22 269 0 gusting 3 21.7
2014-Sep-18 12:20 268 1 gusting 6 21.1
2014-Sep-18 12:12 260 0 gusting 5 21.7
2014-Sep-18 12:07 259 2 gusting 3 21.7
2014-Sep-18 12:05 261 1 gusting 5 21.1
2014-Sep-18 11:57 275 5 gusting 6 21.1
2014-Sep-18 11:52 284 1 gusting 3 21.1
2014-Sep-18 11:49 286 21.1
2014-Sep-18 11:42 299 2 gusting 4 21.1
2014-Sep-18 11:37 253 2 gusting 4 21.1
2014-Sep-18 11:33 252 0 gusting 4 20.6
2014-Sep-18 11:27 250 2 gusting 3 20.6
2014-Sep-18 11:22 252 2 gusting 3 20.6
2014-Sep-18 11:19 286 2 gusting 6 20.0
2014-Sep-18 11:12 272 3 gusting 6 20.6
2014-Sep-18 11:07 292 4 gusting 6 20.6
2014-Sep-18 11:04 262 4 gusting 6 20.6
2014-Sep-18 10:57 276 4 gusting 6 20.6
2014-Sep-18 10:52 269 3 gusting 5 20.6
2014-Sep-18 10:48 272 4 gusting 8 20.0
2014-Sep-18 10:42 309 1 gusting 2 20.0
2014-Sep-18 10:37 311 1 gusting 2 20.0
2014-Sep-18 10:32 310 1 gusting 5 19.4
2014-Sep-18 10:27 303 3 gusting 4 20.0
2014-Sep-18 10:22 322 3 gusting 5 20.0
2014-Sep-18 10:17 308 3 gusting 6 20.0
2014-Sep-18 10:12 287 3 gusting 3 20.0
2014-Sep-18 10:07 270 2 gusting 3 20.0
2014-Sep-18 10:02 277 1 gusting 3 19.4
2014-Sep-18 09:57 331 1 gusting 3 19.4
2014-Sep-18 09:52 332 19.4
2014-Sep-18 09:47 333 3 gusting 4 19.4
2014-Sep-18 09:42 332 2 gusting 3 19.4
2014-Sep-18 09:37 332 0 gusting 2 18.9
2014-Sep-18 09:32 333 2 gusting 4 18.9
2014-Sep-18 09:31 333 2 gusting 5 18.9
2014-Sep-18 09:22 305 2 gusting 4 18.9
2014-Sep-18 09:17 294 2 gusting 3 18.9
2014-Sep-18 09:16 293 1 gusting 7 18.9
2014-Sep-18 09:07 317 4 gusting 6 18.9
2014-Sep-18 09:02 302 4 gusting 6 18.9
2014-Sep-18 09:00 327 4 gusting 8 18.9
2014-Sep-18 08:52 307 4 gusting 4 18.9
2014-Sep-18 08:47 314 5 gusting 7 18.9
2014-Sep-18 08:45 317 4 gusting 9 18.9
2014-Sep-18 08:37 298 4 gusting 6 18.9
2014-Sep-18 08:32 305 3 gusting 4 18.9
2014-Sep-18 08:30 313 3 gusting 6 18.9
2014-Sep-18 08:22 285 3 gusting 5 18.9
2014-Sep-18 08:17 281 2 gusting 3 18.3
2014-Sep-18 08:14 279 0 gusting 6 18.3
2014-Sep-18 08:07 262 2 gusting 3 18.3
2014-Sep-18 08:02 261 0 gusting 1 18.3
2014-Sep-18 08:00 261 1 gusting 5 17.8
2014-Sep-18 07:52 260 18.3
2014-Sep-18 07:47 260 17.8
2014-Sep-18 07:44 260 17.8
2014-Sep-18 07:37 260 0 gusting 1 17.8
2014-Sep-18 07:32 300 17.8
2014-Sep-18 07:28 301 17.2
2014-Sep-18 07:22 301 17.8
2014-Sep-18 07:17 301 17.8
2014-Sep-18 07:14 301 17.2
2014-Sep-18 07:07 301 17.8
2014-Sep-18 07:02 300 17.8
2014-Sep-18 06:59 301 17.2
2014-Sep-18 06:52 300 17.8
2014-Sep-18 06:47 301 17.8
2014-Sep-18 06:44 301 17.2
2014-Sep-18 06:37 301 17.8
2014-Sep-18 06:32 301 17.8
2014-Sep-18 06:28 302 0 gusting 3 17.2
2014-Sep-18 06:22 302 0 gusting 1 17.8
2014-Sep-18 06:17 303 17.8
2014-Sep-18 06:12 303 17.2
2014-Sep-18 06:07 302 0 gusting 2 17.8
2014-Sep-18 06:02 304 0 gusting 1 17.8
2014-Sep-18 05:57 305 1 gusting 5 17.2
2014-Sep-18 05:52 306 2 gusting 6 17.8
2014-Sep-18 05:47 294 2 gusting 5 17.8
2014-Sep-18 05:42 294 2 gusting 7 17.2
2014-Sep-18 05:37 299 3 gusting 6 17.2
2014-Sep-18 05:32 302 5 gusting 6 17.2
2014-Sep-18 05:27 321 6 gusting 7 17.2
2014-Sep-18 05:22 320 3 gusting 4 17.2
2014-Sep-18 05:17 278 4 gusting 6 17.2
2014-Sep-18 05:12 316 3 gusting 4 17.8
2014-Sep-18 05:07 322 2 gusting 4 17.8
2014-Sep-18 05:02 323 1 gusting 3 17.8
2014-Sep-18 04:57 323 1 gusting 2 17.8
2014-Sep-18 04:52 319 1 gusting 2 17.8
2014-Sep-18 04:47 319 2 gusting 4 17.8
2014-Sep-18 04:42 318 0 gusting 1 17.8
2014-Sep-18 04:41 318 0 gusting 7 17.2
2014-Sep-18 04:32 322 4 gusting 5 17.8
2014-Sep-18 04:27 324 5 gusting 8 17.8
2014-Sep-18 04:25 306 5 gusting 9 17.2
2014-Sep-18 04:17 297 3 gusting 6 17.8
2014-Sep-18 04:12 333 3 gusting 6 17.8
2014-Sep-18 04:10 323 3 gusting 6 17.2
2014-Sep-18 04:02 313 2 gusting 4 17.8
2014-Sep-18 03:57 306 1 gusting 2 17.2
2014-Sep-18 03:55 306 0 gusting 4 17.2
2014-Sep-18 03:47 305 2 gusting 3 17.8
2014-Sep-18 03:42 302 1 gusting 6 17.8
2014-Sep-18 03:40 304 0 gusting 3 17.2
2014-Sep-18 03:32 313 1 gusting 2 17.8
2014-Sep-18 03:27 314 2 gusting 2 17.8
2014-Sep-18 03:25 314 2 gusting 4 17.2
2014-Sep-18 03:17 325 3 gusting 4 17.8
2014-Sep-18 03:12 304 3 gusting 4 17.8
2014-Sep-18 03:09 309 2 gusting 6 17.2
2014-Sep-18 03:02 328 4 gusting 5 17.8
2014-Sep-18 02:57 315 0 gusting 2 17.8
2014-Sep-18 02:54 314 0 gusting 6 17.2
2014-Sep-18 02:47 325 3 gusting 6 17.8
2014-Sep-18 02:42 296 1 gusting 1 17.8
2014-Sep-18 02:39 295 0 gusting 3 17.8
2014-Sep-18 02:32 295 17.8
2014-Sep-18 02:27 295 0 gusting 1 17.8
2014-Sep-18 02:23 295 0 gusting 2 17.8
2014-Sep-18 02:17 295 17.8
2014-Sep-18 02:12 295 17.8
2014-Sep-18 02:07 295 17.8
2014-Sep-18 02:02 295 17.8
2014-Sep-18 01:57 295 17.8
2014-Sep-18 01:52 295 17.8
2014-Sep-18 01:47 295 1 gusting 2 17.8
2014-Sep-18 01:42 295 17.8
2014-Sep-18 01:37 296 1 gusting 2 17.8
2014-Sep-18 01:32 297 17.8
2014-Sep-18 01:27 297 0 gusting 1 17.8
2014-Sep-18 01:23 296 0 gusting 3 17.8
2014-Sep-18 01:17 298 0 gusting 1 17.8
2014-Sep-18 01:12 298 0 gusting 0 17.8
2014-Sep-18 01:07 298 17.8
2014-Sep-18 01:02 298 17.8
2014-Sep-18 00:57 298 17.8
2014-Sep-18 00:52 298 17.8
2014-Sep-18 00:47 298 17.8
2014-Sep-18 00:42 298 1 gusting 2 17.8
2014-Sep-18 00:37 298 0 17.8
2014-Sep-18 00:36 298 17.8
2014-Sep-18 00:27 298 17.8
2014-Sep-18 00:22 298 17.8
2014-Sep-18 00:21 298 17.8
2014-Sep-18 00:12 298 17.8
2014-Sep-18 00:07 298 17.8
2014-Sep-18 00:05 298 17.8
2014-Sep-17 23:57 299 2 gusting 2 17.8
2014-Sep-17 23:52 300 18.3
2014-Sep-17 23:50 299 17.8
2014-Sep-17 23:42 299 18.3
2014-Sep-17 23:37 299 18.3
2014-Sep-17 23:35 299 17.8
2014-Sep-17 23:27 299 18.3
2014-Sep-17 23:22 299 18.3
2014-Sep-17 23:20 299 18.3
2014-Sep-17 23:12 299 18.3
2014-Sep-17 23:07 299 18.3
2014-Sep-17 23:05 299 18.3
2014-Sep-17 22:57 299 18.3
2014-Sep-17 22:52 299 18.3
2014-Sep-17 22:49 299 18.3
2014-Sep-17 22:42 299 18.3
2014-Sep-17 22:37 299 18.3
2014-Sep-17 22:34 299 18.3
2014-Sep-17 22:27 299 18.3
2014-Sep-17 22:22 299 1 gusting 2 18.3
2014-Sep-17 22:18 300 18.3
2014-Sep-17 22:12 300 18.3
2014-Sep-17 22:07 300 18.3
2014-Sep-17 22:03 300 18.3
2014-Sep-17 21:57 300 18.3
2014-Sep-17 21:52 300 18.3
2014-Sep-17 21:49 300 18.3
2014-Sep-17 21:42 300 18.3
2014-Sep-17 21:37 300 18.3
2014-Sep-17 21:33 299 18.3
2014-Sep-17 21:27 300 18.3
2014-Sep-17 21:22 299 0 gusting 0 18.3
2014-Sep-17 21:17 299 18.3
2014-Sep-17 21:12 300 18.3
2014-Sep-17 21:07 300 0 gusting 0 18.3
2014-Sep-17 21:03 299 1 gusting 2 18.3
2014-Sep-17 20:57 299 18.3
2014-Sep-17 20:52 299 0 gusting 3 18.9
2014-Sep-17 20:47 298 18.3
2014-Sep-17 20:42 298 18.9
2014-Sep-17 20:37 298 18.9
2014-Sep-17 20:32 298 18.9
2014-Sep-17 20:27 298 18.9
2014-Sep-17 20:22 298 18.9
2014-Sep-17 20:17 298 18.9
2014-Sep-17 20:12 298 18.9
2014-Sep-17 20:07 298 18.3
2014-Sep-17 20:02 298 18.3
2014-Sep-17 19:57 298 18.3
2014-Sep-17 19:52 298 18.3
2014-Sep-17 19:47 298 18.3
2014-Sep-17 19:42 298 18.3
2014-Sep-17 19:37 298 18.3
2014-Sep-17 19:32 298 18.3
2014-Sep-17 19:27 298 18.3
2014-Sep-17 19:22 298 18.3
2014-Sep-17 19:17 298 18.3
2014-Sep-17 19:12 298 18.3
2014-Sep-17 19:07 298 18.3
2014-Sep-17 19:02 298 18.3
2014-Sep-17 19:00 298 18.3
2014-Sep-17 18:52 298 18.9
2014-Sep-17 18:47 298 0 gusting 1 18.9
2014-Sep-17 18:45 298 18.3
2014-Sep-17 18:37 298 18.9
2014-Sep-17 18:32 298 18.9
2014-Sep-17 18:30 298 18.3
2014-Sep-17 18:22 298 18.9
2014-Sep-17 18:17 298 18.9
2014-Sep-17 18:15 298 18.3
2014-Sep-17 18:07 298 18.9
2014-Sep-17 18:02 298 18.9
2014-Sep-17 17:59 298 0 gusting 2 18.3
2014-Sep-17 17:52 299 18.9
2014-Sep-17 17:47 299 0 gusting 1 18.9
2014-Sep-17 17:44 299 18.3
2014-Sep-17 17:37 299 18.9
2014-Sep-17 17:32 299 18.9
2014-Sep-17 17:29 299 1 gusting 4 18.9
2014-Sep-17 17:22 346 18.9
2014-Sep-17 17:17 346 18.9
2014-Sep-17 17:14 346 18.9
2014-Sep-17 17:07 346 18.9
2014-Sep-17 17:02 346 18.9
2014-Sep-17 16:58 346 18.9
2014-Sep-17 16:52 346 18.9
2014-Sep-17 16:47 346 18.9
2014-Sep-17 16:42 346 18.3
2014-Sep-17 16:37 346 18.9
2014-Sep-17 16:32 346 18.9
2014-Sep-17 16:28 346 18.3
2014-Sep-17 16:22 345 18.3
2014-Sep-17 16:17 346 18.3
2014-Sep-17 16:12 345 18.3
2014-Sep-17 16:07 346 18.3
2014-Sep-17 16:02 346 18.3
2014-Sep-17 15:57 346 18.3
2014-Sep-17 15:52 345 18.3
2014-Sep-17 15:47 345 18.9
2014-Sep-17 15:42 345 0 gusting 1 18.9
2014-Sep-17 15:37 345 18.9
2014-Sep-17 15:32 345 18.3
2014-Sep-17 15:27 345 1 gusting 2 18.3
2014-Sep-17 15:22 345 0 gusting 2 18.9
2014-Sep-17 15:17 345 18.3
2014-Sep-17 15:12 345 18.3
2014-Sep-17 15:07 007 1 gusting 3 18.3
2014-Sep-17 15:02 311 1 gusting 3 18.3
2014-Sep-17 14:57 309 2 gusting 4 18.3
2014-Sep-17 14:52 294 3 gusting 4 18.3
2014-Sep-17 14:47 304 1 gusting 3 18.3
2014-Sep-17 14:42 304 3 gusting 4 18.3
2014-Sep-17 14:37 293 3 gusting 4 18.3
2014-Sep-17 14:32 316 3 gusting 4 18.9
2014-Sep-17 14:27 301 5 gusting 6 18.9
2014-Sep-17 14:25 308 4 gusting 7 18.3
2014-Sep-17 14:17 328 4 gusting 6 18.9
2014-Sep-17 14:12 283 2 gusting 6 18.9
2014-Sep-17 14:10 283 3 gusting 6 18.9
2014-Sep-17 14:02 336 3 gusting 5 19.4
2014-Sep-17 13:57 323 4 gusting 8 19.4
2014-Sep-17 13:55 296 3 gusting 7 19.4
2014-Sep-17 13:47 326 3 gusting 8 20.0
2014-Sep-17 13:42 330 3 gusting 6 20.0
2014-Sep-17 13:39 336 4 gusting 10 20.0
2014-Sep-17 13:32 348 6 gusting 10 21.1
2014-Sep-17 13:27 011 3 gusting 4 21.1
2014-Sep-17 13:24 013 2 gusting 7 21.1
2014-Sep-17 13:17 086 0 gusting 2 21.1
2014-Sep-17 13:12 086 0 gusting 2 21.7
2014-Sep-17 13:08 086 1 gusting 5 21.1
2014-Sep-17 13:02 086 2 gusting 2 22.2
2014-Sep-17 12:57 123 1 gusting 1 22.8
2014-Sep-17 12:54 138 1 gusting 6 22.8
2014-Sep-17 12:47 146 0 gusting 0 23.3
2014-Sep-17 12:42 144 23.3
2014-Sep-17 12:39 144 23.3
2014-Sep-17 12:32 109 0 gusting 2 23.9
2014-Sep-17 12:27 108 0 23.9
2014-Sep-17 12:23 105 0 gusting 6 23.3
2014-Sep-17 12:17 142 1 gusting 4 23.9
2014-Sep-17 12:12 163 1 gusting 4 23.9
2014-Sep-17 12:08 173 3 gusting 7 23.9
2014-Sep-17 12:02 179 2 gusting 5 24.4
2014-Sep-17 11:57 188 5 gusting 9 24.4
2014-Sep-17 11:52 171 1 gusting 9 23.9
2014-Sep-17 11:47 199 4 gusting 8 24.4
2014-Sep-17 11:42 196 5 gusting 6 25.0
2014-Sep-17 11:37 213 2 gusting 5 25.0
2014-Sep-17 11:32 148 1 gusting 4 25.0
2014-Sep-17 11:27 169 3 gusting 4 25.0
2014-Sep-17 11:22 165 3 gusting 8 25.0
2014-Sep-17 11:17 063 3 gusting 5 25.6
2014-Sep-17 11:12 091 4 gusting 8 25.6
2014-Sep-17 11:07 084 2 gusting 3 26.1
2014-Sep-17 11:02 078 1 gusting 1 26.1
2014-Sep-17 10:57 098 0 gusting 4 26.1
2014-Sep-17 10:52 086 2 gusting 4 26.1
2014-Sep-17 10:47 078 4 gusting 4 26.1
2014-Sep-17 10:42 077 4 gusting 9 26.7
2014-Sep-17 10:37 112 0 gusting 6 26.1
2014-Sep-17 10:32 100 2 gusting 6 26.1
2014-Sep-17 10:27 080 0 gusting 1 25.6
2014-Sep-17 10:22 093 2 gusting 2 25.6
2014-Sep-17 10:21 092 1 gusting 8 25.6
2014-Sep-17 10:12 063 4 gusting 5 25.0
2014-Sep-17 10:07 063 2 gusting 5 25.0
2014-Sep-17 10:05 064 1 gusting 6 25.0
2014-Sep-17 09:57 070 4 gusting 8 25.6
2014-Sep-17 09:52 075 3 gusting 6 25.0
2014-Sep-17 09:50 063 1 gusting 6 25.0
2014-Sep-17 09:42 068 5 gusting 6 25.0
2014-Sep-17 09:37 071 4 gusting 8 24.4
2014-Sep-17 09:35 040 3 gusting 13 24.4
2014-Sep-17 09:27 072 2 gusting 4 23.9
2014-Sep-17 09:22 050 2 gusting 3 23.3
2014-Sep-17 09:20 057 2 gusting 6 23.3
2014-Sep-17 09:12 040 1 gusting 4 22.8
2014-Sep-17 09:07 060 2 gusting 4 22.8
2014-Sep-17 09:05 061 2 gusting 6 22.2
2014-Sep-17 08:57 069 1 gusting 4 22.2
2014-Sep-17 08:52 038 1 gusting 1 22.2
2014-Sep-17 08:49 046 2 gusting 5 21.7
2014-Sep-17 08:42 037 2 gusting 4 22.2
2014-Sep-17 08:37 040 3 gusting 9 22.2
2014-Sep-17 08:33 067 1 gusting 7 21.7
2014-Sep-17 08:27 027 2 gusting 3 22.2
2014-Sep-17 08:22 049 4 gusting 7 22.2
2014-Sep-17 08:19 082 5 gusting 9 21.7
2014-Sep-17 08:12 046 3 gusting 4 22.2
2014-Sep-17 08:07 046 2 gusting 3 22.2
2014-Sep-17 08:04 069 2 gusting 8 21.7
2014-Sep-17 07:57 033 1 gusting 3 21.7
2014-Sep-17 07:52 023 2 gusting 3 21.7
2014-Sep-17 07:48 360 0 gusting 6 21.1
2014-Sep-17 07:42 036 1 gusting 3 21.7
2014-Sep-17 07:37 314 0 gusting 1 21.7
2014-Sep-17 07:32 311 0 gusting 3 21.1
2014-Sep-17 07:27 306 0 gusting 1 21.1
2014-Sep-17 07:22 321 0 gusting 3 21.1
2014-Sep-17 07:20
2014-Sep-17 07:12 289 0 gusting 3 21.1
2014-Sep-17 07:07 289 0 gusting 3 21.1
2014-Sep-17 07:02 312 1 gusting 2 21.1
2014-Sep-17 06:58 313 0 gusting 3 20.6
2014-Sep-17 06:52 311 20.6
2014-Sep-17 06:47 311 20.6
2014-Sep-17 06:43 311 20.0
2014-Sep-17 06:37 311 0 gusting 2 20.0
2014-Sep-17 06:32 311 0 gusting 2 20.0
2014-Sep-17 06:31 311 0 gusting 4 19.4
2014-Sep-17 06:22 319 0 gusting 2 19.4
2014-Sep-17 06:17 305 1 gusting 2 19.4
2014-Sep-17 06:12 317 1 gusting 3 19.4
2014-Sep-17 06:07 317 1 gusting 4 18.9
2014-Sep-17 06:02 318 2 gusting 3 18.9
2014-Sep-17 05:57 317 0 gusting 4 18.3
2014-Sep-17 05:52 317 0 gusting 2 18.9
2014-Sep-17 05:47 317 0 gusting 2 18.9
2014-Sep-17 05:42 317 18.9
2014-Sep-17 05:37 317 0 gusting 1 18.3
2014-Sep-17 05:32 317 18.3
2014-Sep-17 05:27 317 18.3
2014-Sep-17 05:22 317 1 gusting 1 18.3
2014-Sep-17 05:17 303 0 gusting 4 18.3
2014-Sep-17 05:12 302 18.3
2014-Sep-17 05:07 302 18.3
2014-Sep-17 05:02 302 0 gusting 2 18.3
2014-Sep-17 04:57 301 1 gusting 1 18.3
2014-Sep-17 04:52 278 2 gusting 5 18.3
2014-Sep-17 04:47 263 1 gusting 2 17.8
2014-Sep-17 04:42 269 2 gusting 5 17.8
2014-Sep-17 04:37 280 2 gusting 3 17.8
2014-Sep-17 04:32 036 0 gusting 2 17.8
2014-Sep-17 04:27 036 17.8
2014-Sep-17 04:22 283 17.8
2014-Sep-17 04:17 280 0 gusting 3 17.8
2014-Sep-17 04:12 274 1 gusting 2 17.8
2014-Sep-17 04:07 274 1 gusting 2 17.8
2014-Sep-17 04:02 275 1 gusting 3 17.8
2014-Sep-17 03:57 272 5 gusting 6 17.8
2014-Sep-17 03:52 271 3 gusting 6 17.8
2014-Sep-17 03:47 313 2 gusting 3 17.2
2014-Sep-17 03:42 321 1 gusting 3 17.2
2014-Sep-17 03:37 327 2 gusting 3 17.2
2014-Sep-17 03:32 331 3 gusting 5 17.2
2014-Sep-17 03:27 318 2 gusting 4 17.8
2014-Sep-17 03:22 341 2 gusting 5 17.8
2014-Sep-17 03:17 307 4 gusting 6 17.8
2014-Sep-17 03:12 325 3 gusting 5 17.8
2014-Sep-17 03:11 323 2 gusting 5 17.2
2014-Sep-17 03:02 296 3 gusting 4 17.8
2014-Sep-17 02:57 271 0 gusting 1 17.8
2014-Sep-17 02:55 271 0 gusting 6 17.2
2014-Sep-17 02:47 288 1 gusting 4 17.2
2014-Sep-17 02:42 289 2 gusting 3 17.2
2014-Sep-17 02:40 296 1 gusting 3 17.2
2014-Sep-17 02:32 298 17.2
2014-Sep-17 02:27 298 0 gusting 1 17.2
2014-Sep-17 02:24 298 0 gusting 2 16.7
2014-Sep-17 02:17 298 1 gusting 1 17.2
2014-Sep-17 02:12 298 1 gusting 3 17.2
2014-Sep-17 02:09 297 1 gusting 2 16.7
2014-Sep-17 02:02 298 0 gusting 1 17.2
2014-Sep-17 01:57 298 17.2
2014-Sep-17 01:54 298 16.7
2014-Sep-17 01:47 298 17.2
2014-Sep-17 01:42 298 0 gusting 2 17.2
2014-Sep-17 01:38 298 1 gusting 3 16.7
2014-Sep-17 01:32 298 0 gusting 1 17.2
2014-Sep-17 01:27 298 1 gusting 2 17.2
2014-Sep-17 01:25 298 0 gusting 2 16.7
2014-Sep-17 01:17 298 17.2
2014-Sep-17 01:12 298 17.2
2014-Sep-17 01:08 298 1 gusting 6 16.7
2014-Sep-17 01:02 319 1 gusting 2 17.2
2014-Sep-17 00:57 337 0 gusting 2 17.2
2014-Sep-17 00:53 337 0 gusting 5 17.2
2014-Sep-17 00:47 311 3 gusting 4 17.2
2014-Sep-17 00:42 297 2 gusting 6 17.8
2014-Sep-17 00:37 286 0 gusting 1 17.8
2014-Sep-17 00:32 286 1 gusting 2 17.8
2014-Sep-17 00:27 286 1 gusting 3 17.8
2014-Sep-17 00:22 285 1 gusting 3 17.8
2014-Sep-17 00:17 283 2 gusting 2 17.8
2014-Sep-17 00:12 281 1 gusting 3 17.8
2014-Sep-17 00:07 299 0 gusting 3 17.8
2014-Sep-17 00:02 299 1 gusting 2 17.8
2014-Sep-16 23:57 316 1 gusting 2 17.8
2014-Sep-16 23:52 317 0 gusting 2 17.8
2014-Sep-16 23:51 319 17.8
2014-Sep-16 23:42 319 17.8
2014-Sep-16 23:37 319 17.8
2014-Sep-16 23:32 318 17.8
2014-Sep-16 23:27 319 0 gusting 1 17.8
2014-Sep-16 23:22 319 17.8
2014-Sep-16 23:17 319 17.8
2014-Sep-16 23:12 319 17.8
2014-Sep-16 23:07 319 17.8
2014-Sep-16 23:05 319 17.8
2014-Sep-16 22:57 319 17.8
2014-Sep-16 22:52 319 1 gusting 2 17.8
2014-Sep-16 22:51 318 1 gusting 3 17.8
2014-Sep-16 22:42 323 0 gusting 3 17.8
2014-Sep-16 22:37 324 17.8
2014-Sep-16 22:35 323 17.8
2014-Sep-16 22:27 324 18.3
2014-Sep-16 22:22 324 18.3
2014-Sep-16 22:20 324 17.8
2014-Sep-16 22:12 324 18.3
2014-Sep-16 22:07 324 0 gusting 1 18.3
2014-Sep-16 22:04 323 17.8
2014-Sep-16 21:57 323 1 gusting 2 18.3
2014-Sep-16 21:52 324 2 gusting 3 18.3
2014-Sep-16 21:49 323 2 gusting 6 17.8
2014-Sep-16 21:42 302 2 gusting 0 18.3
2014-Sep-16 21:37 307 1 gusting 3 18.3
2014-Sep-16 21:32 319 2 gusting 3 18.3
2014-Sep-16 21:27 298 2 gusting 4 18.9
2014-Sep-16 21:22 297 2 gusting 3 18.9
2014-Sep-16 21:17 302 2 gusting 4 18.9
2014-Sep-16 21:15 302 2 gusting 5 18.3
2014-Sep-16 21:07 305 3 gusting 6 18.9
2014-Sep-16 21:02 302 1 gusting 3 18.9
2014-Sep-16 20:57 302 1 gusting 3 18.9
2014-Sep-16 20:55 302 0 gusting 3 18.9
2014-Sep-16 20:47 302 2 gusting 3 19.4
2014-Sep-16 20:38 300 0 gusting 2 18.9
2014-Sep-16 20:27 301 1 gusting 2 19.4
2014-Sep-16 20:18 044 1 gusting 3 19.4
2014-Sep-16 20:07 045 19.4
2014-Sep-16 20:00 045 19.4
2014-Sep-16 19:47 045 0 gusting 3 19.4
2014-Sep-16 19:42 046 0 gusting 4 19.4
2014-Sep-16 19:37 047 1 gusting 1 20.0
2014-Sep-16 19:27 048 20.0
2014-Sep-16 19:22 048 20.0
2014-Sep-16 19:17 048 20.0
2014-Sep-16 19:07 048 0 gusting 1 20.6
2014-Sep-16 19:04 048 1 gusting 3 20.0
2014-Sep-16 18:57 049 20.6
2014-Sep-16 18:47 049 20.6
2014-Sep-16 18:44 049 20.6
2014-Sep-16 18:37 049 21.1
2014-Sep-16 18:27 049 21.1
2014-Sep-16 18:26 049 21.1
2014-Sep-16 18:17 049 21.1
2014-Sep-16 18:07 049 21.1
2014-Sep-16 18:06 049 21.1
2014-Sep-16 17:57 049 21.7
2014-Sep-16 17:48 049 21.1
2014-Sep-16 17:37 049 21.7
2014-Sep-16 17:29 049 21.1
2014-Sep-16 17:17 049 21.7
2014-Sep-16 17:15 050 21.7
2014-Sep-16 17:07 050 1 gusting 2 21.7
2014-Sep-16 16:59 063 0 gusting 3 21.7
2014-Sep-16 16:47 065 0 gusting 2 22.2
2014-Sep-16 16:44 065 1 gusting 4 21.7
2014-Sep-16 16:37 065 1 gusting 2 22.2
2014-Sep-16 16:29 065 0 gusting 3 22.2
2014-Sep-16 16:17 066 0 gusting 0 22.2
2014-Sep-16 16:14 066 22.2
2014-Sep-16 16:07 065 0 gusting 1 22.2
2014-Sep-16 15:59 064 22.2
2014-Sep-16 15:47 065 22.2
2014-Sep-16 15:44 065 0 gusting 3 22.2
2014-Sep-16 15:37 067 22.2
2014-Sep-16 15:29 067 22.2
2014-Sep-16 15:20 067 22.2